Flag for Germany Weather past 2 weeks in Herrenberg, Baden-Württemberg, Germany

Now
68 °F

Sunny.


Feels Like: 68 °F
Forecast: 56 / 83 °F
Wind: 1 mph from North

Location: Stuttgart-Echterdingen

Current Time: Aug 4, 2015 at 8:30:03 AM

Latest Report: Aug 4, 2015 at 7:50 AM


Visibility: 10 mi

Pressure: 29.95 "Hg

Humidity: 73%

Dew point: 59 °F

Location of HerrenbergLocation

Historic Weather in Herrenberg — Graph

°F

Herrenberg temperature yesterday

Maximum temperature yesterday: 88 °F (at 3:20 PM)
Minimum temperature yesterday: 57 °F (at 4:20 AM)
Average temperature yesterday: 74 °F

Past Weeks' High & Low Weather Summary

 TemperatureHumidityPressure
High95 °F (Jul 22, 2:20 PM)94% (Jul 23, 1:50 AM)30.12 "Hg (Jul 23, 1:50 AM)
Low46 °F (Jul 31, 5:50 AM)26% (Jul 22, 2:20 PM)29.71 "Hg (Jul 24, 7:20 PM)
Average68 °F61%29.96 "Hg
* Reported Jul 20 7:20 AM — Aug 4 7:20 AM, Herrenberg, Weather by CustomWeather, © 2015

Note: Actual official high and low records may vary slightly from our data, if they occured in-between our weather recording intervals... More about our weather records

Advertising

Herrenberg weather history for previous 24 hours

 ConditionsComfort  
Time TempWeatherWind HumidityBarometerVisibility
7:20 AM
Tue, Aug 4
66 °FSunny.1 mph73%29.95 "Hg10 mi
6:50 AM63 °FClear.1 mph83%29.95 "Hg10 mi
6:20 AM61 °FClear.1 mph83%29.95 "Hg10 mi
5:50 AM63 °FClear.1 mph77%29.95 "Hg10 mi
5:20 AM61 °FClear.1 mph83%29.95 "Hg10 mi
4:50 AM63 °FClear.No wind77%29.95 "Hg10 mi
4:20 AM63 °FClear.1 mph83%29.98 "Hg10 mi
3:50 AM64 °FClear.1 mph78%29.98 "Hg10 mi
3:20 AM64 °FClear.1 mph73%29.98 "Hg10 mi
2:50 AM64 °FClear.No wind78%29.98 "Hg10 mi
2:20 AM66 °FClear.1 mph73%29.98 "Hg10 mi
1:50 AM66 °FClear.1 mph73%29.98 "Hg10 mi
1:20 AM68 °FClear.1 mph69%29.98 "Hg10 mi
12:50 AM70 °FClear.3 mph69%29.98 "Hg10 mi
12:20 AM72 °FClear.2 mph61%29.98 "Hg10 mi
11:50 PM
Mon, Aug 3
73 °FClear.2 mph57%29.98 "Hg10 mi
11:20 PM73 °FClear.2 mph57%30.01 "Hg10 mi
10:50 PM75 °FClear.2 mph54%30.01 "Hg10 mi
10:20 PM77 °FClear.2 mph47%30.01 "Hg10 mi
9:50 PM77 °FSunny.1 mph47%30.01 "Hg10 mi
9:20 PM79 °FSunny.2 mph45%30.01 "Hg10 mi
8:50 PM82 °FSunny.3 mph40%29.98 "Hg10 mi
8:20 PM84 °FSunny.5 mph35%29.98 "Hg10 mi
7:50 PM86 °FSunny.3 mph33%29.98 "Hg10 mi
7:20 PM88 °FSunny.5 mph29%29.98 "Hg10 mi
6:50 PM88 °FPassing clouds.6 mph29%29.98 "HgN/A
6:20 PM88 °FPassing clouds.3 mph29%30.01 "HgN/A
5:50 PM88 °FPassing clouds.5 mph29%30.01 "HgN/A
5:20 PM88 °FPassing clouds.6 mph29%30.01 "HgN/A
4:50 PM88 °FSunny.3 mph29%30.01 "Hg10 mi
4:20 PM88 °FPassing clouds.5 mph29%30.01 "HgN/A
3:50 PM88 °FPassing clouds.5 mph29%30.04 "HgN/A
3:20 PM88 °FSunny.5 mph27%30.04 "Hg10 mi
2:20 PM86 °FSunny.2 mph31%30.04 "Hg10 mi
1:50 PM86 °FSunny.3 mph27%30.04 "Hg10 mi
1:20 PM84 °FSunny.5 mph31%30.07 "Hg10 mi
12:50 PM84 °FSunny.3 mph31%30.07 "Hg10 mi
12:20 PM82 °FPassing clouds.6 mph35%30.07 "HgN/A
11:50 AM81 °FSunny.5 mph37%30.07 "Hg10 mi
11:20 AM79 °FPassing clouds.5 mph39%30.07 "HgN/A
10:50 AM77 °FPassing clouds.7 mph44%30.07 "HgN/A
10:20 AM77 °FPassing clouds.5 mph44%30.09 "HgN/A
9:50 AM75 °FPassing clouds.6 mph50%30.09 "HgN/A
9:20 AM72 °FPassing clouds.5 mph57%30.09 "HgN/A
8:50 AM70 °FSunny.2 mph60%30.09 "Hg10 mi
8:20 AM68 °FSunny.2 mph64%30.07 "Hg10 mi
Weather by CustomWeather, © 2015

See weather overviewHow to use our weather pages